METEOR 2-4

Satellite information

Favourite Embed

Satellite Type and Status

PAYLOADIN ORBIT

Key statistics

Satellite METEOR 2-4 at a glance.

Uptime

16870

Days in orbit

Revolutions

≈ 14.1

Per day

Orbit

LEO

Low Earth Orbit

Inclination

81.2

Latest

Satellite identification and parameters

Extended collection of information and parameters for METEOR 2-4.

Object identification

Identified? True

Debris? False

Object name: METEOR 2-4

International designator: 1979-021A

Object number (NORAD): 11288

Object ID (CCSDS): 11288

Country: COMMONWEALTH OF INDEPENDENT STATES (CIS)

Current information (Y/N): Y

RCS size: LARGE

Orbital parameters

Period: 101.965 minutes

Inclination: 81.2171 deg

SMA: 7229.809 km

Apoapsis: 869.075 km

Periapsis: 834.272 km

RAAN: 175.3049 deg

Eccentricy: 0.0024069

Argument of periapsis: 9.0374 deg

Mean anomaly: 351.1226 deg

Mean motion: 14.12253093 rev/day

Mean motion (dot): -0.00000007 rev/day2

B* drag term: -0.000010667 1/REarth

Two-line elements (TLE)

Creation date: May 8, 2025, 3:01 a.m.

Reference frame: TEME

Reference center: EARTH

Epoch: May 7, 2025, 8:10 p.m. UTC

TLE line 0: 0 METEOR 2-4

TLE line 1: 1 11288U 79021A 25127.84068395 -.00000007 00000-0 -10667-4 0 9992

TLE line 2: 2 11288 81.2171 175.3049 0024069 9.0374 351.1226 14.12253093377800

Live tracking on map

Real-time ground track for satellite METEOR 2-4.

In-orbit conjunctions

A list of the most updated potential collisions computed for object METEOR 2-4.

Target Orbit TCA Probability of collision Miss distance Type
CZ-6A DEB LEO 2025-05-08 16:13:58 0.0001275989 565.0 (m) DEBRIS
CZ-2D DEB SSO 2024-08-02 21:49:29 0.0001726622 486.0 (m) DEBRIS

Associated space launch

Second generation soviet meteorological satellite

METEOR 2-4 was lifted into orbit during the mission ‘Vostok 8A92M | Meteor-2 4’, on board a Vostok 8A92M space rocket.

The launch took place on March 1, 1979, 6:45 p.m. from 43/4 (43R).

For more information about the launch, click the button.

Launch to space Vostok 8A92M | Meteor-2 4
Vostok 8A92M | Meteor-2 4

Agency: N/A

Status: Launch Successful

Launch date: March 1, 1979, 6:45 p.m. UTC

Rocket: Vostok 8A92M

Launch pad: 43/4 (43R)

Location: Plesetsk Cosmodrome, Russian Federation

...

Latest news about this satellite

There are no fresh news available about this satellite. Check back as we update our databases every day.


Newsletter sign-up

Weekly statistics, charts and insights to help you stay on top of the space industry.